| time (UTC) | temp F | wind direction | speed MPH | gust MPH | rain 1hr in | rain 24hr in | rain mn in | humidity % | barometer mb |
| 20260507221539 | -54 | 262 | 5.0 | 8.0 | 0.00 | 0.11 | 0.08 | 1007.5 | |
| 20260507221030 | -54 | 262 | 5.0 | 9.0 | 0.00 | 0.11 | 0.08 | 60 | 1007.5 |
| 20260507220530 | -54 | 262 | 4.0 | 9.0 | 0.00 | 0.11 | 0.08 | 1007.5 | |
| 20260507220049 | -54 | 262 | 6.0 | 9.0 | 0.00 | 0.11 | 0.08 | 1007.6 | |
| 20260507215531 | -54 | 262 | 6.0 | 9.0 | 0.00 | 0.12 | 0.08 | 1007.6 | |
| 20260507215030 | -54 | 262 | 6.0 | 9.0 | 0.00 | 0.12 | 0.08 | 1007.5 | |
| 20260507214545 | -54 | 262 | 6.0 | 10.0 | 0.00 | 0.12 | 0.08 | 1007.5 | |
| 20260507214030 | -54 | 262 | 7.0 | 11.0 | 0.00 | 0.12 | 0.08 | 1007.5 | |
| 20260507213530 | -54 | 261 | 7.0 | 12.0 | 0.00 | 0.12 | 0.08 | 1007.5 | |
| 20260507213052 | -54 | 259 | 8.0 | 13.0 | 0.00 | 0.12 | 0.08 | 1007.5 | |
| 20260507212536 | -54 | 263 | 7.0 | 13.0 | 0.00 | 0.12 | 0.08 | 1007.5 | |
| 20260507212030 | -54 | 254 | 9.0 | 13.0 | 0.00 | 0.12 | 0.08 | 1007.5 | |
| 20260507211541 | 59 | 257 | 8.0 | 13.0 | 0.00 | 0.12 | 0.08 | 51 | 1007.5 |
| 20260507211029 | -52 | 257 | 8.0 | 12.0 | 0.00 | 0.12 | 0.08 | 1007.5 | |
| 20260507210533 | -50 | 256 | 5.0 | 11.0 | 0.00 | 0.12 | 0.08 | 1007.4 | |
| 20260507210042 | -52 | 257 | 6.0 | 12.0 | 0.00 | 0.12 | 0.08 | 1007.4 | |
| 20260507205530 | 59 | 258 | 7.0 | 14.0 | 0.00 | 0.12 | 0.08 | 50 | 1007.3 |
| 20260507205030 | 59 | 261 | 8.0 | 14.0 | 0.00 | 0.12 | 0.08 | 51 | 1007.3 |
| 20260507204535 | 59 | 262 | 8.0 | 12.0 | 0.00 | 0.12 | 0.08 | 52 | 1007.3 |
| 20260507204029 | -54 | 259 | 7.0 | 12.0 | 0.00 | 0.12 | 0.08 | 1007.2 | |
| 20260507203530 | -52 | 257 | 7.0 | 13.0 | 0.00 | 0.12 | 0.08 | 1007.1 | |
| 20260507203035 | -54 | 258 | 8.0 | 13.0 | 0.00 | 0.12 | 0.08 | 50 | 1007.1 |
| 20260507202531 | -54 | 259 | 9.0 | 14.0 | 0.00 | 0.12 | 0.08 | 1007.2 | |
| 20260507202029 | -54 | 261 | 9.0 | 14.0 | 0.00 | 0.12 | 0.08 | 1007.2 | |
| 20260507201538 | -54 | 254 | 9.0 | 14.0 | 0.00 | 0.12 | 0.08 | 1007.2 | |
| 20260507201030 | 58 | 261 | 9.0 | 15.0 | 0.00 | 0.12 | 0.08 | 100 | 1007.2 |
| 20260507200533 | 59 | 261 | 9.0 | 15.0 | 0.00 | 0.12 | 0.08 | 51 | 1007.2 |
| 20260507200048 | 58 | 239 | 7.0 | 15.0 | 0.00 | 0.12 | 0.08 | 50 | 1007.3 |
| 20260507195530 | -54 | 261 | 9.0 | 14.0 | 0.00 | 0.12 | 0.08 | 1007.4 | |
| 20260507195032 | -54 | 260 | 9.0 | 14.0 | 0.00 | 0.12 | 0.08 | 1007.4 | |
| 20260507194553 | -56 | 259 | 9.0 | 13.0 | 0.00 | 0.12 | 0.08 | 1007.4 | |
| 20260507194030 | -56 | 263 | 8.0 | 13.0 | 0.00 | 0.12 | 0.08 | 1007.3 | |
| 20260507193529 | -56 | 269 | 10.0 | 13.0 | 0.00 | 0.12 | 0.08 | 1007.3 | |
| 20260507193047 | -56 | 263 | 9.0 | 14.0 | 0.00 | 0.12 | 0.08 | 1007.2 | |
| 20260507192530 | -56 | 265 | 9.0 | 14.0 | 0.00 | 0.12 | 0.08 | 1007.4 | |
| 20260507192029 | -56 | 261 | 9.0 | 14.0 | 0.00 | 0.12 | 0.08 | 1007.4 | |
| 20260507191601 | -56 | 259 | 9.0 | 14.0 | 0.00 | 0.12 | 0.08 | 1007.5 | |
| 20260507191030 | -54 | 261 | 8.0 | 13.0 | 0.00 | 0.12 | 0.08 | 1007.7 | |
| 20260507190530 | -54 | 261 | 8.0 | 14.0 | 0.00 | 0.12 | 0.08 | 1007.7 | |
| 20260507190040 | 57 | 260 | 9.0 | 14.0 | 0.00 | 0.12 | 0.08 | 58 | 1007.9 |
| 20260507185530 | -54 | 262 | 9.0 | 13.0 | 0.00 | 0.13 | 0.08 | 1008.0 | |
| 20260507185030 | -54 | 260 | 7.0 | 15.0 | 0.00 | 0.13 | 0.08 | 1008.0 | |
| 20260507184551 | -56 | 261 | 10.0 | 15.0 | 0.00 | 0.13 | 0.08 | 1008.1 | |
| 20260507184029 | -56 | 265 | 9.0 | 14.0 | 0.00 | 0.13 | 0.08 | 1008.1 | |
| 20260507183531 | -56 | 258 | 10.0 | 14.0 | 0.00 | 0.13 | 0.08 | 1008.2 | |
| 20260507183044 | -56 | 261 | 9.0 | 13.0 | 0.00 | 0.13 | 0.08 | 57 | 1008.2 |
| 20260507182530 | 57 | 263 | 9.0 | 13.0 | 0.00 | 0.13 | 0.08 | 59 | 1008.3 |
| 20260507182033 | 57 | 256 | 8.0 | 14.0 | 0.00 | 0.13 | 0.08 | 57 | 1008.4 |
| 20260507181546 | -56 | 257 | 9.0 | 14.0 | 0.00 | 0.13 | 0.08 | 1008.5 | |
| 20260507181033 | -56 | 259 | 10.0 | 14.0 | 0.00 | 0.13 | 0.08 | 1008.4 | |
| 20260507180532 | -56 | 264 | 9.0 | 15.0 | 0.00 | 0.13 | 0.08 | 1008.5 | |
| 20260507180043 | -56 | 265 | 9.0 | 15.0 | 0.00 | 0.13 | 0.08 | 1008.5 | |
| 20260507175531 | -56 | 263 | 10.0 | 15.0 | 0.00 | 0.13 | 0.08 | 100 | 1008.5 |
| 20260507175034 | -56 | 262 | 9.0 | 15.0 | 0.00 | 0.13 | 0.08 | 59 | 1008.5 |
| 20260507174542 | 56 | 258 | 9.0 | 15.0 | 0.00 | 0.13 | 0.08 | 61 | 1008.6 |
| 20260507174030 | 56 | 265 | 10.0 | 15.0 | 0.00 | 0.13 | 0.08 | 64 | 1008.6 |
| 20260507173530 | 56 | 264 | 9.0 | 14.0 | 0.00 | 0.13 | 0.08 | 66 | 1008.6 |
| 20260507173041 | -59 | 261 | 9.0 | 13.0 | 0.00 | 0.13 | 0.08 | 1008.7 | |
| 20260507172530 | -59 | 257 | 10.0 | 13.0 | 0.00 | 0.13 | 0.08 | 67 | 1008.8 |
| 20260507172030 | -59 | 258 | 9.0 | 15.0 | 0.00 | 0.13 | 0.08 | 1008.8 | |
| 20260507171542 | 158 | 262 | 10.0 | 15.0 | 0.00 | 0.13 | 0.08 | 64 | 1008.9 |
| 20260507171030 | 55 | 262 | 11.0 | 15.0 | 0.00 | 0.13 | 0.08 | 68 | 1009.0 |
| 20260507170530 | -61 | 257 | 11.0 | 16.0 | 0.00 | 0.13 | 0.08 | 1008.9 | |
| 20260507170037 | -61 | 262 | 11.0 | 16.0 | 0.00 | 0.13 | 0.08 | 1008.8 | |
| 20260507165537 | -61 | 263 | 10.0 | 15.0 | 0.00 | 0.13 | 0.08 | 89 | 1009.1 |
| 20260507165031 | -61 | 265 | 9.0 | 15.0 | 0.00 | 0.13 | 0.08 | 1009.0 | |
| 20260507164559 | 158 | 268 | 9.0 | 12.0 | 0.00 | 0.13 | 0.08 | 1009.1 | |
| 20260507164030 | -61 | 270 | 8.0 | 13.0 | 0.00 | 0.13 | 0.08 | 1009.2 | |
| 20260507163531 | 158 | 273 | 9.0 | 13.0 | 0.00 | 0.13 | 0.08 | 100 | 1009.2 |
| 20260507163044 | 55 | 275 | 8.0 | 13.0 | 0.00 | 0.13 | 0.08 | 69 | 1009.4 |
| 20260507162530 | -61 | 275 | 8.0 | 13.0 | 0.00 | 0.13 | 0.08 | 1009.4 | |
| 20260507162030 | 55 | 278 | 8.0 | 13.0 | 0.00 | 0.13 | 0.08 | 68 | 1009.5 |
| 20260507161541 | 54 | 279 | 8.0 | 13.0 | 0.00 | 0.13 | 0.08 | 69 | 1009.6 |
| 20260507161030 | 54 | 283 | 9.0 | 12.0 | 0.00 | 0.13 | 0.08 | 71 | 1009.7 |
| 20260507160533 | -61 | 286 | 8.0 | 12.0 | 0.00 | 0.13 | 0.08 | 1009.8 | |
| 20260507160052 | 54 | 286 | 9.0 | 12.0 | 0.00 | 0.13 | 0.08 | 93 | 1009.8 |
| 20260507155529 | 158 | 291 | 8.0 | 12.0 | 0.00 | 0.13 | 0.08 | 1009.9 | |
| 20260507155033 | 54 | 294 | 9.0 | 13.0 | 0.00 | 0.13 | 0.08 | 72 | 1009.9 |
| 20260507154547 | 53 | 300 | 8.0 | 13.0 | 0.00 | 0.13 | 0.08 | 73 | 1009.9 |
| 20260507154030 | -63 | 304 | 8.0 | 13.0 | 0.00 | 0.13 | 0.08 | 100 | 1009.8 |
| 20260507153533 | 53 | 315 | 7.0 | 10.0 | 0.00 | 0.13 | 0.08 | 74 | 1009.9 |
| 20260507153043 | 53 | 315 | 7.0 | 10.0 | 0.00 | 0.13 | 0.08 | 74 | 1010.0 |
| 20260507152535 | 53 | 317 | 6.0 | 9.0 | 0.00 | 0.13 | 0.08 | 74 | 1010.0 |
| 20260507152037 | -63 | 317 | 5.0 | 9.0 | 0.00 | 0.13 | 0.08 | 1009.9 | |
| 20260507151544 | 53 | 317 | 5.0 | 11.0 | 0.00 | 0.13 | 0.08 | 74 | 1010.1 |
| 20260507151030 | 53 | 317 | 6.0 | 11.0 | 0.00 | 0.13 | 0.08 | 74 | 1010.2 |
| 20260507150533 | 52 | 317 | 8.0 | 11.0 | 0.00 | 0.13 | 0.08 | 74 | 1010.2 |
| 20260507150046 | 52 | 319 | 8.0 | 11.0 | 0.00 | 0.13 | 0.08 | 74 | 1010.1 |
| 20260507145532 | 52 | 319 | 7.0 | 10.0 | 0.00 | 0.13 | 0.08 | 74 | 1010.1 |
| 20260507145033 | 52 | 319 | 4.0 | 8.0 | 0.00 | 0.13 | 0.08 | 75 | 1010.0 |
| 20260507144547 | 52 | 319 | 5.0 | 10.0 | 0.00 | 0.13 | 0.08 | 76 | 1010.0 |
| 20260507144031 | 52 | 319 | 5.0 | 12.0 | 0.00 | 0.13 | 0.08 | 1010.1 | |
| 20260507143530 | 51 | 319 | 8.0 | 13.0 | 0.00 | 0.13 | 0.08 | 77 | 1010.3 |
| 20260507143057 | 51 | 319 | 10.0 | 13.0 | 0.00 | 0.13 | 0.08 | 77 | 1010.2 |
| 20260507142530 | 51 | 319 | 10.0 | 13.0 | 0.00 | 0.13 | 0.08 | 78 | 1010.1 |
| 20260507142029 | 158 | 321 | 9.0 | 11.0 | 0.00 | 0.13 | 0.08 | 100 | 1010.1 |
| 20260507141604 | 51 | 323 | 9.0 | 11.0 | 0.00 | 0.13 | 0.08 | 80 | 1010.2 |
| 20260507141029 | -66 | 327 | 7.0 | 11.0 | 0.00 | 0.13 | 0.08 | 1010.2 | |
| 20260507140529 | -66 | 327 | 9.0 | 11.0 | 0.00 | 0.13 | 0.08 | 1010.0 | |
| 20260507140043 | 51 | 327 | 9.0 | 11.0 | 0.00 | 0.13 | 0.08 | 82 | 1010.0 |
| 20260507135529 | 51 | 327 | 6.0 | 10.0 | 0.00 | 0.13 | 0.08 | 1010.0 | |
| 20260507135033 | 51 | 327 | 6.0 | 9.0 | 0.00 | 0.13 | 0.08 | 84 | 1010.0 |
| 20260507134541 | -68 | 327 | 4.0 | 6.0 | 0.00 | 0.13 | 0.08 | 1010.1 | |
| 20260507134034 | 50 | 327 | 2.0 | 5.0 | 0.00 | 0.13 | 0.08 | 86 | 1010.1 |
| 20260507133533 | 50 | 327 | 3.0 | 5.0 | 0.00 | 0.13 | 0.08 | 86 | 1010.1 |
| 20260507133041 | 50 | 327 | 3.0 | 6.0 | 0.00 | 0.13 | 0.08 | 100 | 1010.2 |
| 20260507132531 | 50 | 327 | 4.0 | 6.0 | 0.00 | 0.13 | 0.08 | 87 | 1010.3 |
| 20260507132031 | 50 | 327 | 4.0 | 9.0 | 0.00 | 0.13 | 0.08 | 86 | 1010.5 |
| 20260507131543 | 50 | 327 | 5.0 | 9.0 | 0.00 | 0.13 | 0.08 | 86 | 1010.3 |
| 20260507131035 | 50 | 327 | 5.0 | 9.0 | 0.00 | 0.13 | 0.08 | 1010.2 | |
| 20260507130531 | 50 | 327 | 7.0 | 9.0 | 0.00 | 0.13 | 0.08 | 87 | 1010.2 |
| 20260507130042 | 50 | 327 | 6.0 | 8.0 | 0.00 | 0.13 | 0.08 | 1010.2 | |
| 20260507125529 | 50 | 327 | 4.0 | 8.0 | 0.00 | 0.13 | 0.08 | 87 | 1010.4 |
| 20260507125034 | 50 | 327 | 5.0 | 9.0 | 0.00 | 0.13 | 0.08 | 87 | 1010.1 |
| 20260507124544 | -68 | 327 | 5.0 | 9.0 | 0.00 | 0.13 | 0.08 | 87 | 1010.0 |
| 20260507124034 | 50 | 327 | 6.0 | 10.0 | 0.00 | 0.13 | 0.08 | 87 | 1010.0 |
| 20260507123530 | 50 | 327 | 7.0 | 11.0 | 0.00 | 0.13 | 0.08 | 87 | 1010.1 |
| 20260507123053 | -68 | 327 | 8.0 | 11.0 | 0.00 | 0.13 | 0.08 | 100 | 1010.0 |
| 20260507122530 | 49 | 327 | 9.0 | 11.0 | 0.00 | 0.13 | 0.08 | 88 | 1009.9 |
| 20260507122030 | 49 | 327 | 8.0 | 10.0 | 0.00 | 0.13 | 0.08 | 88 | 1010.0 |
| 20260507121549 | -70 | 327 | 7.0 | 10.0 | 0.00 | 0.13 | 0.08 | 1010.0 | |
| 20260507121032 | -70 | 327 | 7.0 | 10.0 | 0.00 | 0.13 | 0.08 | 1010.1 | |
| 20260507120531 | -70 | 328 | 7.0 | 11.0 | 0.00 | 0.13 | 0.08 | 1010.0 | |
| 20260507120110 | 158 | 328 | 9.0 | 11.0 | 0.00 | 0.13 | 0.08 | 88 | 1009.7 |
| 20260507115530 | 50 | 329 | 8.0 | 10.0 | 0.01 | 0.13 | 0.08 | 88 | 1009.7 |
| 20260507115030 | -68 | 329 | 7.0 | 10.0 | 0.01 | 0.13 | 0.08 | 1009.3 | |
| 20260507114537 | 158 | 329 | 8.0 | 11.0 | 0.01 | 0.13 | 0.08 | 100 | 1009.6 |
| 20260507114031 | 50 | 329 | 7.0 | 11.0 | 0.01 | 0.13 | 0.08 | 88 | 1009.7 |
| 20260507113531 | 50 | 329 | 9.0 | 11.0 | 0.01 | 0.13 | 0.08 | 87 | 1009.7 |
| 20260507113044 | -68 | 329 | 9.0 | 12.0 | 0.01 | 0.13 | 0.08 | 87 | 1009.6 |
| 20260507112530 | 50 | 330 | 8.0 | 12.0 | 0.01 | 0.13 | 0.08 | 1009.6 | |
| 20260507112029 | 50 | 330 | 9.0 | 12.0 | 0.01 | 0.13 | 0.08 | 87 | 1009.9 |
| 20260507111539 | -70 | 331 | 9.0 | 12.0 | 0.01 | 0.13 | 0.08 | 1009.7 | |
| 20260507111032 | 49 | 332 | 10.0 | 12.0 | 0.01 | 0.13 | 0.08 | 87 | 1009.3 |
| 20260507110529 | 49 | 331 | 10.0 | 12.0 | 0.01 | 0.13 | 0.08 | 87 | 1009.7 |
| 20260507110044 | 49 | 330 | 9.0 | 12.0 | 0.01 | 0.13 | 0.08 | 100 | 1009.7 |
| 20260507105533 | 49 | 330 | 9.0 | 12.0 | 0.00 | 0.12 | 0.07 | 88 | 1009.5 |
| 20260507105032 | 50 | 330 | 10.0 | 12.0 | 0.00 | 0.12 | 0.07 | 88 | 1009.4 |
| 20260507104538 | -68 | 330 | 9.0 | 14.0 | 0.00 | 0.12 | 0.07 | 88 | 1009.3 |
| 20260507104032 | 50 | 330 | 10.0 | 14.0 | 0.00 | 0.12 | 0.07 | 88 | 1009.1 |
| 20260507103533 | 50 | 329 | 12.0 | 15.0 | 0.00 | 0.12 | 0.07 | 88 | 1009.2 |
| 20260507103037 | -68 | 329 | 12.0 | 16.0 | 0.00 | 0.12 | 0.07 | 100 | 1009.1 |
| 20260507102531 | 50 | 327 | 12.0 | 16.0 | 0.00 | 0.12 | 0.07 | 88 | 1009.0 |
| 20260507102033 | 50 | 323 | 13.0 | 16.0 | 0.00 | 0.12 | 0.07 | 88 | 1009.2 |
| 20260507101540 | 50 | 322 | 13.0 | 16.0 | 0.00 | 0.12 | 0.07 | 88 | 1009.0 |
| 20260507101030 | 158 | 322 | 12.0 | 16.0 | 0.00 | 0.12 | 0.07 | 1008.8 | |
| 20260507100529 | 50 | 317 | 13.0 | 16.0 | 0.00 | 0.12 | 0.07 | 100 | 1009.0 |
| 20260507100052 | 50 | 316 | 13.0 | 16.0 | 0.00 | 0.12 | 0.07 | 88 | 1008.9 |
| 20260507095532 | 50 | 315 | 11.0 | 14.0 | 0.00 | 0.12 | 0.07 | 88 | 1009.0 |
| 20260507095029 | 50 | 315 | 11.0 | 14.0 | 0.01 | 0.12 | 0.07 | 88 | 1009.1 |
| 20260507094538 | -68 | 318 | 11.0 | 15.0 | 0.01 | 0.12 | 0.07 | 88 | 1009.0 |
| 20260507094032 | -68 | 321 | 11.0 | 15.0 | 0.01 | 0.12 | 0.07 | 1008.7 | |
| 20260507093533 | -68 | 322 | 12.0 | 15.0 | 0.01 | 0.12 | 0.07 | 1008.6 | |
| 20260507093035 | -68 | 323 | 12.0 | 17.0 | 0.01 | 0.12 | 0.07 | 1008.5 | |
| 20260507092534 | -68 | 323 | 13.0 | 17.0 | 0.01 | 0.12 | 0.07 | 1008.4 | |
| 20260507092032 | 50 | 325 | 14.0 | 16.0 | 0.01 | 0.12 | 0.07 | 89 | 1008.3 |
| 20260507091540 | 50 | 325 | 13.0 | 18.0 | 0.01 | 0.12 | 0.07 | 100 | 1008.4 |
| 20260507091031 | 50 | 321 | 14.0 | 18.0 | 0.01 | 0.12 | 0.07 | 89 | 1008.7 |
| 20260507090531 | 50 | 330 | 14.0 | 18.0 | 0.01 | 0.12 | 0.07 | 89 | 1008.3 |
| 20260507090056 | 50 | 319 | 13.0 | 16.0 | 0.02 | 0.12 | 0.07 | 89 | 1008.7 |
| 20260507085531 | 50 | 321 | 12.0 | 14.0 | 0.02 | 0.12 | 0.07 | 90 | 1008.5 |
| 20260507085030 | 50 | 317 | 10.0 | 13.0 | 0.02 | 0.11 | 0.06 | 89 | 1008.7 |
| 20260507084548 | 50 | 317 | 9.0 | 13.0 | 0.03 | 0.11 | 0.06 | 89 | 1008.9 |
| 20260507084030 | 50 | 319 | 10.0 | 16.0 | 0.03 | 0.11 | 0.06 | 89 | 1008.6 |
| 20260507083530 | 50 | 320 | 12.0 | 16.0 | 0.03 | 0.11 | 0.06 | 90 | 1008.7 |
| 20260507083041 | 50 | 319 | 13.0 | 16.0 | 0.03 | 0.11 | 0.06 | 90 | 1008.6 |
| 20260507082529 | 50 | 319 | 13.0 | 15.0 | 0.04 | 0.11 | 0.06 | 90 | 1008.5 |
| 20260507082029 | 50 | 318 | 12.0 | 14.0 | 0.04 | 0.11 | 0.06 | 90 | 1008.5 |
| 20260507081541 | 50 | 321 | 12.0 | 14.0 | 0.04 | 0.11 | 0.06 | 90 | 1008.3 |
| 20260507081031 | 50 | 323 | 11.0 | 14.0 | 0.04 | 0.11 | 0.06 | 90 | 1008.1 |
| 20260507080532 | -68 | 324 | 11.0 | 13.0 | 0.03 | 0.10 | 0.05 | 1007.9 | |
| 20260507080038 | -68 | 322 | 9.0 | 12.0 | 0.04 | 0.10 | 0.05 | 1008.0 | |
| 20260507075531 | 51 | 318 | 8.0 | 15.0 | 0.04 | 0.10 | 0.05 | 90 | 1007.9 |
| 20260507075031 | 51 | 310 | 10.0 | 15.0 | 0.03 | 0.09 | 0.04 | 90 | 1008.3 |
| 20260507074544 | 51 | 312 | 12.0 | 15.0 | 0.02 | 0.08 | 0.03 | 90 | 1008.5 |
| 20260507074031 | 51 | 317 | 12.0 | 14.0 | 0.02 | 0.08 | 0.03 | 90 | 1008.3 |
| 20260507073530 | 51 | 323 | 12.0 | 14.0 | 0.02 | 0.08 | 0.03 | 90 | 1007.9 |
| 20260507073039 | 51 | 321 | 11.0 | 14.0 | 0.02 | 0.08 | 0.03 | 89 | 1007.7 |
| 20260507072531 | 51 | 315 | 8.0 | 12.0 | 0.01 | 0.07 | 0.02 | 89 | 1007.9 |
| 20260507072031 | 51 | 314 | 9.0 | 12.0 | 0.01 | 0.07 | 0.02 | 1008.1 | |
| 20260507071539 | 51 | 313 | 6.0 | 10.0 | 0.01 | 0.07 | 0.02 | 90 | 1007.9 |
| 20260507071031 | -66 | 313 | 7.0 | 11.0 | 0.01 | 0.07 | 0.02 | 89 | 1008.1 |
| 20260507070532 | -66 | 313 | 8.0 | 11.0 | 0.00 | 0.06 | 0.01 | 1008.4 | |
| 20260507070042 | -66 | 313 | 9.0 | 17.0 | 0.00 | 0.06 | 0.01 | 100 | 1008.2 |
| 20260507065529 | -66 | 311 | 11.0 | 17.0 | 0.00 | 0.06 | 0.01 | 1008.0 | |
| 20260507065029 | 52 | 289 | 7.0 | 13.0 | 0.00 | 0.06 | 0.01 | 1008.8 | |
| 20260507064613 | -66 | 228 | 0.0 | 4.0 | 0.00 | 0.06 | 0.01 | 100 | 1007.6 |
| 20260507064031 | -66 | 0 | 0.0 | 3.0 | 0.00 | 0.06 | 0.01 | 89 | 1007.6 |
| 20260507063531 | 52 | 0 | 0.0 | 4.0 | 0.00 | 0.06 | 0.01 | 89 | 1007.4 |
| 20260507063036 | 52 | 228 | 2.0 | 4.0 | 0.00 | 0.06 | 0.01 | 89 | 1007.3 |
| 20260507062531 | 52 | 228 | 1.0 | 4.0 | 0.00 | 0.06 | 0.01 | 89 | 1007.2 |
| 20260507062032 | 52 | 228 | 2.0 | 5.0 | 0.00 | 0.06 | 0.01 | 89 | 1007.1 |
| 20260507061541 | 52 | 228 | 2.0 | 5.0 | 0.00 | 0.06 | 0.01 | 89 | 1007.0 |
| 20260507061030 | 52 | 228 | 4.0 | 6.0 | 0.00 | 0.06 | 0.01 | 89 | 1007.0 |
| 20260507060529 | 53 | 228 | 4.0 | 6.0 | 0.00 | 0.06 | 0.01 | 89 | 1007.1 |
| 20260507060049 | -63 | 228 | 3.0 | 5.0 | 0.00 | 0.06 | 0.01 | 89 | 1007.0 |
| 20260507055530 | 53 | 0 | 0.0 | 0.0 | 0.00 | 0.06 | 0.01 | 89 | 1007.1 |
| 20260507055032 | 53 | 0 | 0.0 | 0.0 | 0.00 | 0.06 | 0.01 | 1007.2 | |
| 20260507054543 | 53 | 0 | 0.0 | 0.0 | 0.00 | 0.06 | 0.01 | 89 | 1007.3 |
| 20260507054029 | 53 | 0 | 0.0 | 2.0 | 0.00 | 0.06 | 0.01 | 89 | 1007.3 |
| 20260507053534 | 53 | 0 | 0.0 | 2.0 | 0.01 | 0.06 | 0.01 | 89 | 1007.4 |
| 20260507053044 | 53 | 228 | 0.0 | 3.0 | 0.01 | 0.06 | 0.01 | 100 | 1007.4 |
| 20260507052534 | 53 | 0 | 0.0 | 8.0 | 0.01 | 0.06 | 0.01 | 89 | 1007.3 |
| 20260507052031 | 53 | 228 | 2.0 | 8.0 | 0.01 | 0.06 | 0.01 | 88 | 1007.4 |
| 20260507051559 | -63 | 228 | 6.0 | 8.0 | 0.01 | 0.06 | 0.01 | 1007.3 | |
| 20260507051031 | 55 | 201 | 3.0 | 6.0 | 0.01 | 0.06 | 0.01 | 1007.6 | |
| 20260507050534 | 55 | 201 | 1.0 | 4.0 | 0.01 | 0.06 | 0.01 | 89 | 1007.6 |
| 20260507050048 | 54 | 0 | 0.0 | 4.0 | 0.01 | 0.06 | 0.01 | 89 | 1007.7 |
| 20260507045531 | 54 | 200 | 0.0 | 4.0 | 0.01 | 0.06 | 0.01 | 89 | 1007.9 |
| 20260507045034 | 54 | 0 | 0.0 | 0.0 | 0.01 | 0.06 | 0.01 | 89 | 1008.0 |
| 20260507044556 | 53 | 0 | 0.0 | 3.0 | 0.01 | 0.06 | 0.01 | 1008.0 | |
| 20260507044038 | 53 | 0 | 0.0 | 4.0 | 0.02 | 0.06 | 0.01 | 88 | 1007.9 |
| 20260507043534 | 53 | 0 | 0.0 | 4.0 | 0.02 | 0.05 | 0.00 | 88 | 1008.0 |
| 20260507043047 | -63 | 201 | 1.0 | 3.0 | 0.03 | 0.05 | 0.00 | 100 | 1008.1 |
| 20260507042534 | 53 | 201 | 2.0 | 7.0 | 0.03 | 0.05 | 0.00 | 87 | 1008.1 |
| 20260507042034 | 53 | 201 | 2.0 | 7.0 | 0.03 | 0.05 | 0.00 | 87 | 1008.1 |
| 20260507041543 | 54 | 200 | 5.0 | 7.0 | 0.03 | 0.05 | 0.00 | 87 | 1008.2 |
| 20260507041032 | 55 | 0 | 0.0 | 4.0 | 0.03 | 0.05 | 0.00 | 87 | 1007.7 |
| 20260507040535 | 55 | 192 | 1.0 | 4.0 | 0.03 | 0.05 | 0.00 | 88 | 1007.8 |
| 20260507040047 | 55 | 192 | 1.0 | 5.0 | 0.03 | 0.05 | 0.00 | 87 | 1007.9 |
| 20260507035531 | 55 | 0 | 0.0 | 5.0 | 0.03 | 0.05 | 0.05 | 86 | 1007.7 |
| 20260507035031 | 56 | 192 | 1.0 | 5.0 | 0.03 | 0.05 | 0.05 | 87 | 1007.9 |
| 20260507034547 | 57 | 192 | 1.0 | 6.0 | 0.03 | 0.05 | 0.05 | 87 | 1008.0 |
| 20260507034033 | 57 | 192 | 2.0 | 6.0 | 0.02 | 0.04 | 0.04 | 87 | 1007.9 |
| 20260507033535 | 57 | 192 | 1.0 | 12.0 | 0.01 | 0.03 | 0.03 | 1008.0 | |
| 20260507033040 | -54 | 192 | 4.0 | 12.0 | 0.00 | 0.02 | 0.02 | 1007.9 | |
| 20260507032534 | 57 | 186 | 3.0 | 12.0 | 0.00 | 0.02 | 0.02 | 87 | 1007.9 |
| 20260507032035 | 57 | 190 | 4.0 | 9.0 | 0.00 | 0.02 | 0.02 | 87 | 1007.9 |
| 20260507031535 | 57 | 194 | 3.0 | 7.0 | 0.00 | 0.02 | 0.02 | 87 | 1007.7 |
| 20260507031034 | 57 | 191 | 3.0 | 8.0 | 0.00 | 0.02 | 0.02 | 87 | 1007.6 |
| 20260507030535 | 57 | 193 | 3.0 | 11.0 | 0.00 | 0.02 | 0.02 | 87 | 1007.7 |
| 20260507030048 | 57 | 192 | 4.0 | 11.0 | 0.00 | 0.02 | 0.02 | 87 | 1007.7 |
| 20260507025536 | 57 | 202 | 5.0 | 9.0 | 0.00 | 0.02 | 0.02 | 88 | 1007.8 |
| 20260507025039 | 57 | 202 | 4.0 | 12.0 | 0.00 | 0.02 | 0.02 | 88 | 1007.6 |
| 20260507024543 | 57 | 199 | 5.0 | 12.0 | 0.00 | 0.02 | 0.02 | 87 | 1007.8 |
| 20260507024034 | 57 | 190 | 4.0 | 11.0 | 0.00 | 0.02 | 0.02 | 87 | 1007.9 |
| 20260507023532 | 57 | 195 | 5.0 | 11.0 | 0.00 | 0.02 | 0.02 | 87 | 1007.9 |
| 20260507023043 | 57 | 182 | 4.0 | 11.0 | 0.00 | 0.02 | 0.02 | 87 | 1007.8 |
| 20260507022535 | 57 | 188 | 4.0 | 12.0 | 0.00 | 0.02 | 0.02 | 87 | 1007.9 |
| 20260507022031 | 57 | 185 | 5.0 | 12.0 | 0.00 | 0.02 | 0.02 | 87 | 1007.8 |
| 20260507021549 | 57 | 138 | 4.0 | 10.0 | 0.00 | 0.02 | 0.02 | 87 | 1007.8 |
| 20260507021035 | 57 | 196 | 4.0 | 9.0 | 0.00 | 0.02 | 0.02 | 87 | 1007.9 |
| 20260507020535 | 57 | 203 | 4.0 | 11.0 | 0.00 | 0.02 | 0.02 | 87 | 1007.9 |
| 20260507020100 | 57 | 197 | 4.0 | 11.0 | 0.00 | 0.02 | 0.02 | 87 | 1008.0 |
| 20260507015537 | 57 | 196 | 2.0 | 10.0 | 0.00 | 0.02 | 0.02 | 87 | 1007.9 |
| 20260507015034 | 57 | 209 | 3.0 | 10.0 | 0.00 | 0.02 | 0.02 | 87 | 1007.8 |
| 20260507014548 | 57 | 198 | 3.0 | 10.0 | 0.00 | 0.02 | 0.02 | 87 | 1008.0 |
| 20260507014035 | 57 | 207 | 1.0 | 11.0 | 0.00 | 0.02 | 0.02 | 87 | 1007.9 |
| 20260507013535 | 57 | 207 | 5.0 | 16.0 | 0.00 | 0.02 | 0.02 | 87 | 1007.8 |
| 20260507013044 | 57 | 213 | 4.0 | 16.0 | 0.00 | 0.02 | 0.02 | 87 | 1007.9 |
| 20260507012537 | 57 | 210 | 4.0 | 9.0 | 0.00 | 0.02 | 0.02 | 87 | 1008.1 |
| 20260507012034 | 57 | 207 | 4.0 | 12.0 | 0.00 | 0.02 | 0.02 | 87 | 1007.9 |
| 20260507011544 | 57 | 205 | 4.0 | 12.0 | 0.00 | 0.02 | 0.02 | 87 | 1007.9 |
| 20260507011034 | 57 | 192 | 5.0 | 14.0 | 0.00 | 0.02 | 0.02 | 87 | 1008.0 |
| 20260507010535 | 57 | 192 | 5.0 | 14.0 | 0.00 | 0.02 | 0.02 | 87 | 1007.9 |
| 20260507010057 | 57 | 180 | 4.0 | 11.0 | 0.00 | 0.02 | 0.02 | 87 | 1007.9 |
| 20260507005534 | 57 | 176 | 5.0 | 13.0 | 0.00 | 0.02 | 0.02 | 87 | 1007.9 |
| 20260507005034 | 57 | 205 | 6.0 | 13.0 | 0.00 | 0.02 | 0.02 | 87 | 1008.0 |
| 20260507004549 | 57 | 202 | 5.0 | 13.0 | 0.00 | 0.02 | 0.02 | 87 | 1008.2 |
| 20260507004031 | 57 | 223 | 4.0 | 13.0 | 0.00 | 0.02 | 0.02 | 87 | 1008.4 |
| 20260507003532 | 57 | 186 | 6.0 | 15.0 | 0.00 | 0.02 | 0.02 | 87 | 1008.2 |
| 20260507003044 | 57 | 190 | 4.0 | 15.0 | 0.00 | 0.02 | 0.02 | 87 | 1008.2 |
| 20260507002530 | 57 | 194 | 6.0 | 18.0 | 0.00 | 0.02 | 0.02 | 87 | 1008.3 |
| 20260507002033 | 57 | 210 | 5.0 | 18.0 | 0.00 | 0.02 | 0.02 | 87 | 1008.2 |
| 20260507001551 | 57 | 178 | 6.0 | 17.0 | 0.00 | 0.02 | 0.02 | 87 | 1008.2 |
| 20260507001034 | 57 | 175 | 6.0 | 14.0 | 0.00 | 0.02 | 0.02 | 87 | 1008.3 |
| 20260507000534 | 57 | 187 | 4.0 | 12.0 | 0.00 | 0.02 | 0.02 | 87 | 1008.1 |
| 20260507000044 | 57 | 178 | 5.0 | 16.0 | 0.00 | 0.02 | 0.02 | 88 | 1008.1 |
| 20260506235534 | 57 | 182 | 7.0 | 16.0 | 0.00 | 0.02 | 0.02 | 88 | 1008.0 |
| 20260506235034 | 57 | 198 | 5.0 | 14.0 | 0.00 | 0.02 | 0.02 | 88 | 1007.9 |
| 20260506234550 | 57 | 221 | 5.0 | 14.0 | 0.00 | 0.02 | 0.02 | 88 | 1007.9 |
| 20260506234036 | 57 | 188 | 5.0 | 14.0 | 0.00 | 0.02 | 0.02 | 88 | 1007.9 |
| 20260506233534 | 57 | 194 | 4.0 | 14.0 | 0.00 | 0.02 | 0.02 | 88 | 1007.9 |
| 20260506233049 | 57 | 206 | 6.0 | 14.0 | 0.00 | 0.02 | 0.02 | 88 | 1007.8 |
| 20260506232533 | 57 | 187 | 5.0 | 15.0 | 0.00 | 0.02 | 0.02 | 88 | 1007.8 |
| 20260506232033 | 57 | 206 | 5.0 | 17.0 | 0.00 | 0.02 | 0.02 | 88 | 1007.9 |
| 20260506231603 | 57 | 167 | 5.0 | 17.0 | 0.00 | 0.02 | 0.02 | 88 | 1007.9 |
| 20260506231035 | 57 | 207 | 6.0 | 16.0 | 0.00 | 0.02 | 0.02 | 100 | 1008.0 |
| 20260506230531 | 57 | 203 | 6.0 | 16.0 | 0.00 | 0.02 | 0.02 | 88 | 1008.0 |
| 20260506230055 | 57 | 197 | 7.0 | 19.0 | 0.00 | 0.02 | 0.02 | 88 | 1008.0 |
| 20260506225534 | 57 | 200 | 7.0 | 19.0 | 0.00 | 0.02 | 0.02 | 88 | 1008.0 |
| 20260506225030 | 56 | 186 | 7.0 | 16.0 | 0.00 | 0.02 | 0.02 | 88 | 1007.9 |
| 20260506224544 | 56 | 169 | 6.0 | 21.0 | 0.00 | 0.02 | 0.02 | 88 | 1007.8 |
| 20260506224033 | 57 | 182 | 5.0 | 21.0 | 0.00 | 0.02 | 0.02 | 88 | 1007.8 |
| 20260506223536 | 57 | 221 | 6.0 | 23.0 | 0.00 | 0.02 | 0.02 | 88 | 1007.8 |
| 20260506223040 | 57 | 186 | 5.0 | 23.0 | 0.00 | 0.02 | 0.02 | 88 | 1007.7 |
| 20260506222534 | 57 | 186 | 6.0 | 19.0 | 0.00 | 0.02 | 0.02 | 88 | 1007.7 |
| 20260506222036 | 57 | 187 | 8.0 | 19.0 | 0.00 | 0.02 | 0.02 | 88 | 1007.8 |
| 20260506221546 | 57 | 175 | 7.0 | 16.0 | 0.01 | 0.02 | 0.02 | 88 | 1007.9 |